Wind_Speed
4 3 3 3 3 2 1 1 1 1 0 1 1 1 1 1 2 2 1 1 2 2 2 3 3 3 3 3 3 3 3 4 4 6 8 6 4 6 5 7 7 7 8 9 10 11 12 12 12 11 11 10 10 10 10 10 12 13 14 14 13 14 15 15 14 14 14 13 13 13 13 12 12 12 12 12 12 12 12 12 13 13 14 15 16
4 4 3 3 3 2 2 2 1 1 1 1 1 1 1 1 2 2 1 1 1 0 2 3 2 2 2 2 3 3 3 4 4 5 6 4 5 6 6 6 6 6 7 9 10 10 11 12 11 11 11 10 10 11 11 11 12 14 14 14 15 15 16 15 15 16 16 16 15 14 14 14 14 14 14 14 14 13 13 13 14 14 15 16 17
5 4 4 4 3 3 3 3 2 2 2 2 2 2 2 1 1 1 1 1 1 1 2 2 2 1 1 1 2 2 3 3 4 4 4 4 4 5 5 5 5 6 7 8 8 8 9 10 9 9 10 10 11 11 12 12 14 15 15 16 17 18 18 17 17 18 18 18 18 17 16 15 15 15 15 14 14 14 14 15 15 16 17 18 18
6 6 5 4 4 3 3 3 3 3 3 3 2 2 2 2 1 1 2 2 2 2 2 2 2 2 1 0 0 1 2 2 3 3 3 3 3 4 4 5 4 5 6 6 6 5 5 7 8 8 9 10 11 11 12 13 14 16 17 18 19 19 20 20 21 21 20 20 20 19 18 17 17 16 16 15 15 15 16 16 17 17 18 19 20
6 7 6 5 5 4 3 3 3 3 3 3 3 3 3 2 2 2 2 3 3 2 3 3 2 2 2 2 1 1 2 2 2 2 3 3 2 3 3 4 4 4 5 4 2 2 3 5 7 8 9 10 11 11 12 13 14 15 17 17 18 18 19 20 21 21 21 21 21 20 19 18 18 17 17 17 17 17 17 18 18 19 19 19 20
6 7 6 6 6 5 4 4 4 3 2 2 3 3 3 3 3 3 2 3 3 3 3 3 3 2 2 2 3 2 3 3 1 1 2 2 2 2 3 3 4 4 3 1 2 2 3 4 6 6 7 9 10 11 11 12 13 15 15 15 15 15 17 18 19 20 20 20 20 20 19 18 18 18 18 17 17 18 18 18 19 19 19 19 19
6 6 6 6 6 6 6 5 4 3 3 3 2 2 2 2 3 3 3 3 3 3 2 2 3 2 2 3 3 3 3 3 2 2 2 2 2 1 2 2 2 3 3 4 4 1 3 4 5 4 4 5 7 10 11 12 14 15 15 15 15 16 17 17 18 19 20 20 19 19 19 18 17 17 17 17 17 18 18 17 17 18 18 18 18
7 7 7 7 6 7 7 6 4 4 3 3 3 2 2 2 3 4 4 4 5 4 2 2 3 2 2 3 3 4 3 2 2 2 1 2 1 1 2 1 2 3 3 4 5 4 3 3 5 6 6 6 6 7 9 9 10 11 13 14 14 15 16 17 17 18 19 20 19 17 16 16 15 15 15 16 16 17 17 16 16 17 16 16 15
8 7 7 7 7 7 7 6 5 4 3 3 3 3 3 3 3 4 4 5 6 5 4 2 2 2 2 3 3 3 3 3 3 2 1 1 1 2 2 2 5 6 5 4 6 7 6 4 4 6 7 6 5 5 6 7 8 8 9 10 10 10 11 13 14 14 14 14 15 14 12 13 12 12 12 13 13 14 14 14 14 15 14 12 12
8 8 7 7 7 7 6 6 6 5 4 3 3 3 4 4 4 4 4 5 5 5 5 3 2 2 1 3 3 3 3 4 4 4 3 3 3 4 5 5 6 7 7 7 6 6 6 7 7 8 9 8 7 7 8 8 8 8 9 9 9 8 9 10 9 8 7 8 9 9 8 8 9 9 9 10 11 11 12 12 10 9 9 9 11
9 8 8 7 7 7 7 7 6 6 5 5 4 4 4 3 4 3 3 3 3 4 4 3 3 2 1 2 3 4 4 4 4 5 5 5 5 6 6 7 7 7 7 8 7 6 6 6 7 8 10 11 10 10 9 10 9 9 10 10 10 10 10 10 9 7 6 4 4 4 4 5 7 8 8 8 8 8 7 7 6 6 7 9 11
9 8 8 8 7 7 8 8 7 6 6 6 6 5 5 4 4 3 3 3 2 3 3 2 2 1 0 1 2 4 5 5 6 6 6 6 6 7 7 7 7 7 8 8 7 8 7 7 7 7 8 8 10 11 11 12 12 12 12 12 12 12 12 12 10 9 8 7 6 5 5 6 5 5 5 4 4 5 4 5 5 6 8 11 12
8 8 8 8 7 7 8 8 8 7 7 7 7 6 6 5 4 3 3 3 2 2 3 3 3 2 1 2 3 5 6 7 8 8 8 7 7 7 7 7 8 8 9 9 9 9 9 8 8 8 7 7 8 9 11 14 15 15 15 15 15 15 15 14 12 11 10 9 8 7 6 6 5 5 6 6 5 4 4 5 7 8 10 12 13
8 8 9 8 8 8 8 8 8 8 7 7 7 7 7 6 6 4 3 3 2 2 4 4 4 4 3 2 3 5 7 9 9 9 8 7 6 7 8 8 9 9 9 11 11 11 10 9 9 9 8 8 7 7 11 15 16 16 16 16 17 18 18 17 16 14 13 13 13 12 11 10 10 8 7 7 7 7 7 8 9 10 11 12 13
8 8 9 9 8 8 8 8 8 8 7 7 7 7 7 7 7 6 5 3 1 2 4 4 4 4 4 4 3 3 4 6 8 9 8 8 8 9 10 10 11 10 11 11 11 11 10 10 10 9 8 9 9 9 12 15 15 16 17 17 17 18 19 18 17 16 16 16 15 15 15 13 12 11 9 9 10 10 10 11 11 11 12 13 13
8 8 8 9 8 8 7 8 8 8 7 7 8 7 7 7 7 6 6 4 3 3 3 4 4 3 4 4 4 4 2 4 7 8 8 10 11 11 11 11 11 11 12 12 12 11 10 10 9 8 9 9 11 15 16 15 15 17 18 18 17 16 16 16 17 16 15 16 16 15 15 14 14 13 13 12 12 12 13 13 12 12 13 14 14
8 8 8 8 8 8 7 7 8 8 8 8 8 8 8 8 7 7 6 6 5 3 3 3 4 3 3 3 3 3 2 4 7 5 7 10 11 11 12 11 11 11 12 12 12 11 10 10 10 9 10 10 12 18 20 18 19 20 20 20 18 17 16 15 15 14 13 14 15 15 15 14 13 14 15 14 13 13 14 14 14 14 14 14 15
9 8 8 8 8 8 8 7 7 8 8 8 8 8 8 9 8 7 7 6 6 4 3 3 3 3 3 3 2 2 3 0 4 3 6 9 11 11 12 11 11 11 11 11 12 11 10 11 11 11 11 11 12 16 19 20 21 21 21 19 18 18 17 16 15 14 13 14 15 16 16 16 15 15 16 15 14 14 15 15 16 16 15 15 15
9 8 8 8 7 7 7 7 6 7 7 8 8 8 8 9 9 8 7 7 6 5 4 4 2 3 3 2 2 2 3 3 1 3 5 7 9 11 11 11 12 11 11 11 11 11 11 11 12 13 12 11 12 14 17 18 20 21 21 19 18 18 18 17 17 17 17 17 18 17 17 18 17 16 16 16 16 16 16 16 16 17 16 16 16
8 8 8 8 7 6 6 6 5 6 6 6 7 8 8 9 9 9 8 7 7 6 5 5 4 3 2 2 2 2 2 3 3 2 3 5 6 9 10 11 13 12 11 11 11 11 11 11 11 11 12 12 13 14 15 16 18 21 21 19 19 19 20 20 19 20 20 19 19 19 18 18 18 17 17 17 17 16 16 16 17 17 16 15 16
7 8 8 7 7 6 5 5 6 6 6 6 6 7 8 9 9 9 9 8 7 7 6 6 6 5 3 3 3 2 2 2 2 3 2 7 5 6 9 10 11 12 11 11 11 11 11 10 10 10 10 11 13 14 15 16 17 19 20 20 21 20 21 21 21 21 20 20 19 19 19 19 19 19 18 18 17 16 16 17 16 16 15 15 17
6 6 7 7 6 6 5 5 6 6 6 6 6 7 7 8 9 9 9 8 7 7 7 6 6 6 5 4 4 3 2 2 1 3 3 8 8 6 8 8 9 11 10 10 12 12 11 11 11 11 11 11 13 14 15 17 17 16 16 18 21 21 21 21 21 20 20 20 19 19 19 19 20 20 20 19 19 18 18 17 15 16 17 16 17
5 5 5 6 5 6 5 5 5 5 5 6 6 6 7 7 8 9 9 9 8 7 7 7 6 6 6 5 4 4 3 3 2 4 2 7 10 7 8 9 11 11 9 10 12 12 13 13 13 13 13 13 14 14 16 17 16 14 14 16 19 20 20 20 19 19 19 19 19 19 20 20 20 21 20 20 20 20 20 19 17 17 18 18 18
3 4 4 4 4 4 4 4 4 4 4 4 5 6 6 6 7 8 9 8 9 8 7 7 6 5 5 5 4 4 3 4 4 4 3 7 10 9 10 11 11 11 9 10 11 12 13 13 13 13 13 13 14 15 15 16 17 16 16 15 15 17 19 19 18 18 18 19 19 19 20 21 21 20 20 20 20 20 20 20 19 18 18 18 18
2 3 3 3 2 3 3 3 4 4 4 4 4 5 5 5 6 7 7 7 7 7 6 6 5 5 5 5 5 4 4 5 4 3 3 7 9 9 10 11 12 11 9 9 10 11 12 11 11 12 12 13 13 14 14 16 17 18 19 18 16 15 16 17 18 18 17 18 19 20 20 20 21 20 20 21 20 20 20 20 20 19 19 19 19
2 3 3 2 2 2 2 3 3 3 3 4 4 4 5 5 5 6 6 6 5 5 4 5 5 5 5 4 5 5 5 5 4 3 2 5 8 12 11 9 12 11 8 7 8 9 10 10 10 11 11 12 12 13 13 14 16 18 19 20 20 17 15 16 16 16 17 17 18 19 20 20 20 21 21 21 21 21 21 20 20 20 19 19 19
2 2 2 2 2 2 2 3 3 2 2 2 2 3 4 4 4 4 4 4 4 4 3 3 4 4 5 5 4 5 6 5 4 3 1 2 6 15 16 9 8 9 7 7 7 9 9 9 9 9 10 11 11 12 13 14 16 17 17 18 20 20 19 18 16 15 16 18 18 18 19 20 21 21 22 22 22 21 21 21 21 21 20 20 19
1 2 1 2 2 2 2 2 2 2 2 2 2 3 4 3 3 3 4 4 4 4 3 3 3 3 4 4 4 4 6 5 4 2 0 1 2 9 13 10 6 6 6 5 6 8 8 8 8 9 9 10 11 11 11 12 13 15 16 17 19 21 21 22 20 17 16 18 19 19 20 21 22 23 23 23 23 22 22 22 22 22 22 22 20
1 1 1 2 2 2 2 2 2 2 2 2 2 3 3 3 2 3 4 4 4 4 4 3 2 2 2 3 3 4 5 5 4 3 0 1 1 3 5 8 8 7 6 5 5 7 6 6 7 8 8 9 10 10 11 12 12 13 14 17 19 21 22 22 23 21 17 18 19 20 21 22 23 25 25 25 24 24 23 24 24 24 24 25 23
1 0 1 2 2 2 2 1 1 1 1 1 2 3 3 3 2 3 3 3 3 4 4 4 3 3 2 2 2 3 4 4 4 4 1 1 2 2 2 6 9 8 8 7 6 7 7 6 7 8 8 8 9 10 10 11 12 12 12 14 16 20 22 22 22 22 20 19 20 21 23 24 26 28 28 27 26 25 25 25 26 26 26 27 26
2 1 2 3 3 3 2 1 1 1 1 1 2 3 3 3 2 2 3 3 3 4 4 4 4 3 3 3 3 3 3 3 4 4 2 1 2 3 3 4 5 5 8 9 7 7 8 8 8 8 8 8 8 9 10 10 11 11 10 11 11 14 20 22 22 21 20 20 21 23 25 27 29 30 30 30 28 27 27 27 27 28 28 28 28
3 2 3 4 4 4 3 2 1 1 1 1 3 3 2 2 2 2 2 2 3 3 4 4 4 3 3 3 3 3 3 3 3 3 2 1 3 4 4 5 5 4 6 8 9 9 9 9 10 9 8 9 8 8 9 9 10 10 9 9 9 10 14 18 20 19 19 19 21 22 24 27 29 30 31 31 30 28 28 27 28 28 29 29 28
4 4 4 5 5 5 4 3 2 2 1 1 3 2 1 1 1 2 2 2 2 2 2 3 4 4 3 3 4 4 4 4 3 3 2 0 2 4 4 5 5 4 5 8 10 11 10 9 9 9 9 8 8 7 8 8 8 8 9 9 9 9 11 13 16 17 17 18 20 21 23 25 27 29 31 32 31 30 29 28 28 28 29 29 29
6 5 5 6 6 6 5 4 3 2 1 1 2 2 1 1 1 2 2 2 1 1 1 2 3 3 3 3 3 3 3 4 4 3 2 1 1 3 4 4 4 5 6 8 10 11 11 10 9 9 8 7 7 7 6 7 7 7 8 8 9 10 10 11 13 15 15 16 17 19 21 24 26 28 30 32 32 31 30 30 29 28 28 29 29
7 6 6 7 7 7 6 5 4 3 2 1 2 1 1 1 1 2 2 1 1 1 1 2 3 3 3 3 3 3 3 3 4 3 2 1 0 2 3 3 4 6 7 7 7 9 11 11 9 9 8 6 7 7 6 6 6 6 7 7 8 9 9 10 11 12 13 14 15 17 19 22 25 27 30 32 33 33 32 31 29 28 28 28 28
8 7 7 7 8 8 7 6 5 4 3 2 1 1 1 1 1 1 1 1 1 1 2 3 3 3 3 3 3 3 3 3 3 4 3 2 2 4 5 5 6 7 7 6 6 7 9 10 10 8 8 7 7 7 6 6 5 5 6 6 7 7 8 9 9 10 12 12 13 15 18 20 24 27 30 32 33 34 33 32 30 29 28 28 27
9 8 8 8 9 9 8 7 6 5 4 3 1 1 2 2 2 2 2 2 3 3 3 3 3 3 3 3 3 3 3 3 4 4 5 4 5 5 6 7 8 7 6 5 6 7 8 9 9 9 8 7 7 6 6 5 5 5 5 5 5 5 6 7 7 8 10 11 12 14 16 19 22 26 29 32 33 33 33 32 31 29 28 27 27
10 10 9 9 10 9 9 8 7 6 5 3 2 2 2 2 3 3 4 4 4 4 4 4 4 3 3 3 3 3 4 4 5 5 5 5 6 6 6 7 8 7 6 5 6 7 8 9 9 9 8 7 7 6 6 4 4 4 4 4 4 4 4 5 5 5 6 7 9 11 12 13 17 22 26 29 31 32 32 32 32 30 28 27 26
12 11 10 10 10 9 9 8 7 7 6 4 3 2 2 3 3 4 5 5 5 4 4 4 4 4 4 4 4 4 4 4 5 5 5 5 6 7 7 6 7 6 6 6 6 7 8 9 9 9 8 8 6 6 6 5 3 3 3 3 3 4 4 4 5 5 5 5 7 10 11 11 13 17 22 26 28 30 31 31 31 31 29 27 26
13 11 11 10 10 10 9 9 8 7 6 5 3 3 3 3 4 5 5 5 5 5 4 4 4 5 5 4 4 4 4 5 5 5 5 5 5 6 6 5 6 5 5 5 6 7 8 8 8 8 8 7 7 6 6 5 4 3 2 1 2 3 3 4 5 5 6 6 6 9 10 10 11 14 17 21 24 27 30 31 31 31 29 27 26
13 11 11 10 10 10 10 10 9 8 7 6 4 4 3 4 5 5 5 5 5 5 5 5 5 5 5 5 5 5 6 6 7 7 7 7 5 5 5 4 4 4 4 5 6 6 7 7 7 8 7 7 8 7 6 6 3 2 2 1 1 3 3 4 5 5 5 6 7 8 9 8 9 11 13 18 21 23 27 31 31 30 29 27 25
13 12 11 10 11 11 11 11 10 9 7 7 5 5 5 5 5 6 6 6 5 5 5 5 6 6 6 6 6 6 6 6 7 7 7 7 7 7 7 5 4 3 3 4 5 5 6 6 6 7 7 7 8 7 7 5 3 2 2 2 2 3 2 3 4 4 4 5 6 8 9 8 9 10 12 16 20 22 25 28 29 28 27 26 24
14 13 12 11 11 11 11 11 11 9 8 8 6 5 5 6 7 6 6 7 6 5 5 5 6 7 7 6 6 7 6 6 6 6 6 6 7 7 7 6 4 3 2 2 3 4 4 5 5 6 6 7 7 7 6 5 4 3 3 2 3 3 2 2 2 4 4 4 4 6 8 7 8 10 12 14 18 22 25 27 26 26 25 25 24
16 14 13 12 11 11 11 12 11 10 10 9 8 7 6 6 8 7 6 7 6 5 5 5 5 6 6 6 6 6 6 7 7 6 6 6 6 5 5 4 4 3 2 2 2 2 2 3 5 5 5 7 7 7 6 6 5 4 3 2 3 3 2 0 2 4 4 3 3 5 7 6 6 9 11 12 15 19 25 27 26 25 25 23 23
17 16 14 13 12 12 12 12 12 11 11 11 9 9 8 7 8 8 6 6 6 5 5 5 5 5 5 5 6 5 6 7 6 5 5 4 4 3 2 1 2 3 4 5 5 3 2 2 4 5 4 5 7 7 6 5 5 4 4 3 3 2 2 1 3 4 3 2 2 4 6 6 6 7 9 9 10 15 23 27 26 25 24 23 23
18 17 16 15 14 13 13 13 12 11 11 12 11 10 10 9 9 8 6 6 6 6 5 5 5 5 5 5 5 6 6 6 5 5 5 4 3 3 3 3 2 2 2 2 3 4 3 1 2 4 4 4 5 6 6 5 5 4 3 3 3 2 1 3 3 3 2 2 2 2 5 6 5 6 8 7 6 9 17 25 27 25 24 24 24
18 17 16 15 15 14 14 14 13 12 13 14 13 12 11 11 10 8 6 6 7 6 6 5 5 4 4 4 5 6 6 6 7 8 6 5 5 5 5 6 6 5 5 6 5 5 4 2 2 4 5 5 5 6 6 6 4 3 2 2 2 2 2 2 2 2 2 2 2 3 4 6 5 6 8 6 6 6 10 18 24 25 24 23 25
17 16 16 16 16 15 15 15 14 13 14 15 15 13 13 13 13 10 8 7 7 7 7 6 5 5 5 5 5 6 6 6 8 10 10 7 6 6 7 7 7 7 6 7 7 7 6 6 6 6 7 8 7 7 8 8 5 3 3 3 3 3 3 4 3 2 3 3 2 3 4 6 4 6 8 6 7 7 7 11 18 22 23 23 25
17 17 17 17 17 16 16 17 16 14 15 17 17 15 15 16 15 12 10 9 8 7 8 7 6 5 5 6 6 5 6 7 9 10 11 9 7 6 7 7 7 8 7 7 6 6 6 6 6 7 7 8 8 8 9 9 7 6 4 3 4 4 4 3 3 3 3 3 2 1 2 5 4 4 6 7 7 8 8 8 12 17 20 21 23
19 19 18 17 16 16 17 17 17 16 15 18 20 18 17 18 17 14 11 10 9 9 9 8 7 6 6 8 8 6 5 8 10 11 12 10 7 6 7 7 7 8 7 6 6 6 5 5 5 5 6 7 7 8 8 8 8 7 3 1 3 4 3 1 2 3 3 4 3 0 1 3 3 2 2 4 7 8 9 8 10 14 15 16 18
20 19 18 16 16 16 16 17 19 18 15 17 21 21 19 19 19 16 13 12 11 10 10 9 8 7 7 8 9 8 7 8 9 11 13 10 7 6 7 7 7 7 7 6 5 5 5 5 5 5 5 5 5 7 7 7 9 7 1 2 0 2 2 1 2 2 2 5 5 1 1 2 2 3 2 1 4 8 7 8 10 11 12 11 12
Wind_Direction
41 33 29 26 15 360 353 352 13 49 208 218 219 213 218 225 236 239 227 236 227 232 240 225 228 237 245 248 242 238 225 221 207 219 236 234 241 245 229 220 209 198 200 200 205 208 204 203 212 219 221 228 233 237 241 248 252 254 259 264 268 274 276 278 278 281 283 283 282 280 277 277 278 277 275 276 279 280 281 284 287 290 292 295 296
20 15 11 2 349 340 330 317 328 337 286 254 232 215 215 210 234 248 218 240 233 203 248 241 235 231 249 259 249 241 229 228 223 226 235 228 234 245 239 225 209 199 201 201 203 208 209 208 215 222 226 232 237 240 243 250 257 260 263 267 272 275 276 275 275 278 280 280 280 278 277 278 279 280 279 279 281 281 283 285 287 288 291 293 294
13 9 2 355 348 343 335 315 307 302 291 277 253 234 237 231 238 273 291 280 285 255 256 260 252 229 215 248 265 262 245 243 245 239 234 222 218 235 247 236 213 205 207 208 209 212 214 218 226 232 234 241 245 246 249 254 258 261 264 266 268 269 271 271 273 274 275 275 275 276 277 279 281 282 282 281 280 280 282 284 285 287 289 290 290
21 18 13 9 4 357 352 337 320 306 299 290 271 266 268 265 266 274 281 280 276 268 270 272 268 274 263 236 277 274 265 258 260 259 251 246 228 229 246 248 239 226 217 215 215 220 227 235 240 242 245 248 251 254 256 261 265 265 265 265 266 267 268 269 271 272 273 273 272 272 274 275 278 279 280 279 277 277 280 282 284 285 287 288 289
30 27 24 23 19 10 6 360 349 333 317 300 280 272 270 266 270 268 273 277 271 274 281 277 278 285 286 294 290 285 287 270 264 271 266 266 256 246 250 252 255 253 240 232 235 266 267 265 260 255 256 253 254 261 263 267 273 275 274 272 271 271 270 270 271 272 274 274 271 270 271 273 273 275 277 276 276 276 278 281 283 284 285 286 288
35 30 27 27 29 24 14 9 3 353 342 320 288 271 270 271 271 266 268 275 271 277 288 285 285 283 296 312 303 303 299 288 287 277 270 270 258 258 264 257 250 252 267 354 44 339 301 293 285 275 272 267 266 273 275 276 280 283 283 282 280 278 277 277 276 275 275 274 274 273 273 272 271 273 275 277 279 280 280 282 285 286 289 290 292
38 32 30 30 34 34 24 14 3 353 358 351 322 294 288 289 293 291 283 279 271 268 285 300 296 297 317 319 315 317 309 308 317 278 252 244 228 243 265 262 274 285 332 33 64 29 297 304 319 316 304 296 290 290 292 293 293 293 295 295 293 290 287 285 282 280 278 277 278 276 275 273 273 274 277 280 284 285 285 287 288 289 292 294 295
42 37 37 36 37 39 32 23 12 354 354 354 348 337 322 318 318 312 304 292 283 277 276 290 294 307 321 324 333 332 328 341 344 307 274 261 248 332 290 285 355 12 16 26 47 35 340 302 328 341 334 327 320 310 311 314 312 309 308 307 304 302 300 296 292 287 281 279 278 278 278 275 274 275 277 282 285 287 289 290 289 290 292 296 300
47 42 41 41 39 39 36 31 27 18 4 346 339 341 332 324 318 315 308 298 297 298 294 284 275 295 330 347 353 350 358 11 11 7 12 346 359 12 18 41 41 53 63 55 49 40 33 24 8 4 353 347 354 356 350 343 338 334 329 325 322 320 317 310 305 302 294 285 281 281 279 274 276 280 282 286 289 292 294 294 293 294 298 306 311
51 46 43 42 41 39 35 32 33 34 30 17 9 360 344 326 312 311 307 299 302 303 306 313 296 291 346 8 14 19 22 25 32 39 54 59 50 50 55 57 50 55 64 65 64 55 51 52 45 36 32 40 49 42 25 4 350 344 342 345 348 351 346 334 328 330 324 303 290 286 279 283 298 304 299 297 300 301 301 301 304 308 314 318 316
53 49 46 43 41 39 38 35 33 34 33 29 31 28 17 351 321 319 313 290 297 307 308 315 302 300 355 39 47 51 44 40 52 60 65 69 67 65 64 64 61 61 66 68 64 61 58 53 50 49 53 62 61 51 39 20 12 7 4 8 13 16 11 5 10 16 10 352 340 329 319 322 322 318 313 311 315 321 322 325 327 326 321 314 312
55 51 49 46 42 38 36 36 33 34 35 28 24 23 19 6 340 335 324 293 297 318 312 303 284 293 14 85 69 67 65 58 64 71 72 69 68 69 67 66 67 63 61 65 64 62 61 55 54 53 55 56 46 41 39 30 29 29 26 28 31 30 26 23 26 31 32 29 25 11 356 350 334 332 348 357 360 360 360 354 338 327 325 322 322
54 51 50 47 45 40 35 35 32 30 32 27 24 21 13 6 348 331 324 323 333 331 330 308 255 230 194 137 89 71 69 70 72 73 72 70 67 69 68 63 63 65 65 67 66 62 62 60 57 51 45 37 24 29 39 38 37 40 40 42 45 44 42 39 38 38 39 42 45 44 42 50 63 66 62 57 43 22 2 348 340 340 341 339 338
50 47 46 44 42 41 36 33 31 28 28 26 25 23 16 12 2 348 337 331 332 346 346 317 261 246 248 196 127 92 76 73 72 69 67 67 67 68 69 69 69 72 71 69 65 60 60 59 56 47 40 34 17 21 50 51 45 47 48 48 51 51 51 51 51 51 50 54 57 57 56 59 58 56 48 33 16 6 353 343 346 350 348 344 343
45 44 44 42 41 41 38 34 32 30 28 29 28 22 17 16 13 8 355 332 329 18 355 327 296 281 258 232 193 154 111 87 75 67 68 68 71 76 74 74 75 74 71 67 63 60 57 51 47 43 37 33 20 21 50 55 50 52 53 52 54 54 55 56 56 56 54 52 50 47 44 37 29 23 20 16 6 4 2 354 352 353 352 348 345
41 42 42 41 40 41 40 39 37 34 32 34 32 24 19 17 16 17 10 353 357 21 3 343 337 317 269 261 250 231 210 132 106 75 71 74 71 75 78 77 76 73 69 65 63 61 59 52 48 50 44 37 35 41 53 56 54 54 48 45 47 47 49 52 53 52 50 45 39 33 30 24 20 18 19 17 9 6 7 3 357 355 355 353 348
38 39 40 38 38 39 40 40 38 35 33 35 34 29 26 23 20 19 20 10 356 1 9 356 354 352 323 306 267 249 283 144 136 78 63 80 80 78 76 76 75 73 70 66 65 63 61 58 54 55 52 44 46 50 53 53 52 50 43 36 35 33 32 35 38 36 36 37 33 27 23 19 18 19 19 17 11 8 8 6 2 358 357 354 350
36 36 36 34 35 36 37 38 37 34 30 32 33 29 27 26 24 21 22 16 359 354 12 4 358 6 1 351 324 298 320 164 144 94 74 79 83 86 80 77 74 71 70 68 67 64 61 60 56 58 59 55 51 50 49 48 47 47 44 38 34 32 31 30 33 33 35 37 34 31 28 25 25 24 21 18 14 12 10 7 5 2 360 358 353
32 32 31 29 30 31 32 33 34 35 30 30 29 27 27 24 23 25 24 22 12 5 9 8 7 7 7 13 3 337 318 305 265 137 116 80 74 84 83 79 76 69 69 68 67 68 67 65 63 61 60 55 51 50 48 46 46 46 44 42 39 39 38 37 38 39 41 41 38 36 34 32 31 28 24 20 17 14 11 9 8 6 4 1 356
26 26 25 26 27 26 28 29 31 35 32 33 31 27 28 25 24 25 23 26 23 14 9 11 22 20 11 17 3 354 348 322 300 265 147 117 91 93 92 86 81 73 67 67 67 71 72 70 67 62 56 51 48 48 48 47 47 45 42 42 44 44 43 42 43 43 43 43 41 39 37 35 32 28 25 22 20 17 15 13 12 9 6 5 4
21 21 20 21 23 20 21 25 29 33 31 32 32 28 28 28 29 27 23 25 24 19 16 17 29 29 17 11 357 347 344 353 331 294 185 140 131 124 119 104 86 77 71 69 69 71 74 71 68 63 56 52 51 51 53 52 50 49 48 46 44 44 44 44 44 45 45 43 41 39 38 36 33 31 29 25 22 21 20 17 14 11 7 8 10
17 18 16 15 16 15 16 22 27 30 32 32 28 24 25 25 27 27 26 25 22 23 21 21 34 34 26 16 5 5 329 334 29 289 228 139 135 149 145 127 99 85 75 74 75 72 72 71 67 66 63 60 60 60 59 59 57 56 56 54 48 44 44 46 46 46 45 43 42 42 40 38 36 34 32 29 26 25 24 20 18 18 14 11 11
15 15 13 10 9 12 15 23 28 30 31 31 25 19 18 18 18 17 20 21 18 21 21 22 33 36 38 37 21 21 348 335 357 313 323 124 139 150 141 125 111 103 89 78 79 76 74 74 72 70 70 68 67 67 63 62 63 59 51 52 54 48 43 45 48 46 44 44 44 44 42 40 37 34 32 29 28 27 26 23 22 21 17 15 13
14 15 14 11 8 17 22 29 37 39 36 38 33 24 18 15 13 9 12 16 15 17 19 20 28 33 40 46 37 32 11 360 351 333 42 124 150 144 134 128 115 109 101 87 82 80 76 76 76 75 75 74 70 70 67 63 62 58 51 46 52 55 51 47 46 45 45 44 45 45 43 40 35 33 31 29 28 27 25 24 22 21 18 16 14
23 22 21 22 26 31 34 37 42 44 47 52 47 34 20 13 11 6 9 15 16 19 19 15 20 27 32 39 38 30 21 24 7 350 81 136 152 142 142 139 124 116 110 103 93 84 78 76 78 78 76 76 73 70 68 64 59 55 52 48 47 54 61 57 49 45 45 45 45 44 41 38 34 32 31 30 29 28 26 25 23 21 19 17 16
40 30 27 48 70 59 50 49 47 47 49 49 46 34 17 6 5 5 10 19 24 27 25 18 20 24 26 30 35 31 25 29 24 15 100 157 157 150 147 130 122 124 120 119 105 87 82 78 78 80 77 76 75 72 69 66 61 55 52 51 48 50 58 62 56 51 48 47 47 45 40 37 35 33 32 32 32 30 28 27 25 23 20 19 18
49 39 45 81 95 86 76 66 63 65 55 34 24 17 5 357 357 4 17 33 39 42 43 35 27 26 27 24 27 32 25 23 29 39 114 184 159 152 146 129 123 126 121 117 99 88 92 88 82 83 83 81 77 75 73 69 65 62 59 55 52 50 53 57 59 59 56 52 48 45 42 39 37 36 35 34 34 33 31 30 29 26 23 21 20
61 43 78 124 129 118 90 81 85 77 53 29 12 360 353 352 360 14 31 49 56 58 59 58 46 37 31 19 20 27 19 17 32 44 145 182 173 161 144 133 137 131 127 128 108 101 104 98 93 89 88 86 81 78 75 72 67 64 64 61 56 53 53 55 56 59 63 61 54 47 44 41 38 38 37 36 35 35 34 34 33 30 27 24 22
105 60 143 164 160 153 117 94 96 76 51 38 16 357 350 360 19 32 41 55 65 67 64 67 66 57 46 23 19 27 19 14 34 55 187 186 170 184 143 136 151 151 147 146 128 126 122 110 108 100 92 90 87 83 77 76 78 72 68 67 60 55 53 53 53 55 62 66 60 52 47 43 41 40 40 38 38 37 37 36 35 32 30 27 25
172 162 187 186 183 174 156 118 101 81 60 33 8 360 2 15 35 42 43 49 64 67 59 57 59 59 58 42 32 34 30 14 24 60 114 222 136 148 156 152 156 156 154 149 134 140 140 126 121 113 106 101 94 90 83 80 85 80 72 72 63 52 51 53 53 55 59 61 59 55 51 47 45 42 41 40 39 39 38 38 37 34 31 29 27
204 227 212 201 201 194 184 171 151 127 83 27 5 7 13 22 36 47 46 46 59 64 55 49 49 54 58 58 55 40 33 20 11 35 82 171 148 142 153 163 163 157 155 148 136 146 148 134 128 126 120 113 104 98 91 87 88 82 72 75 64 46 47 50 51 55 58 57 56 54 51 48 45 42 40 39 39 39 38 37 37 35 32 31 29
213 231 226 213 209 204 200 196 190 178 118 31 6 8 20 31 36 44 43 43 56 63 60 57 51 55 64 65 63 44 23 26 18 11 30 136 165 161 156 161 172 172 158 144 131 138 145 138 136 136 127 120 115 108 101 94 89 81 70 69 63 52 53 51 49 52 56 55 54 51 47 45 43 41 39 37 37 37 37 37 36 35 32 31 30
216 231 228 216 213 209 207 207 199 189 144 39 12 9 27 41 33 26 25 26 42 56 64 68 63 58 64 66 63 54 29 19 16 2 356 341 184 182 172 164 164 161 148 136 128 131 140 144 142 138 135 131 121 111 106 99 90 81 73 67 63 60 62 59 52 51 53 54 51 48 45 42 39 38 37 36 36 35 36 36 35 34 32 30 30
216 227 224 215 213 209 208 208 200 186 157 65 23 14 21 35 7 359 358 353 11 62 85 82 81 71 67 73 66 51 30 16 9 5 358 334 218 186 176 164 151 138 132 131 129 132 141 148 148 143 145 141 126 117 110 102 95 87 78 71 65 62 62 64 59 52 50 51 48 44 42 39 36 36 36 36 35 35 35 35 35 34 32 30 28
214 221 220 214 212 208 206 204 197 187 167 106 41 29 23 342 337 344 349 345 347 137 134 103 93 88 79 80 71 44 25 22 21 25 27 7 32 147 146 145 134 122 121 128 135 140 143 149 155 154 152 148 135 128 121 110 104 95 84 74 70 68 65 66 65 57 50 48 47 42 38 35 33 34 36 35 35 35 34 33 34 33 31 30 28
213 215 215 213 210 205 203 200 193 187 175 149 78 54 47 6 359 7 18 62 108 132 126 109 93 88 83 78 70 51 36 42 47 53 60 69 98 115 122 131 131 124 123 128 137 147 149 151 159 160 156 154 145 137 132 123 114 101 91 84 78 75 70 67 68 59 45 39 39 36 33 32 31 33 35 34 33 34 33 32 33 32 31 30 28
210 210 210 209 206 203 201 199 192 185 179 164 120 76 70 53 52 72 81 100 114 118 114 107 95 83 80 77 72 60 51 59 66 67 71 84 106 120 127 134 135 133 135 134 138 150 155 153 155 155 155 156 151 148 147 137 128 116 104 93 81 77 76 71 65 55 41 30 27 27 25 25 25 27 30 32 31 31 32 31 32 32 31 30 28
210 209 207 206 205 204 199 195 190 182 178 165 129 95 89 89 86 92 99 105 113 114 109 105 97 87 83 83 80 71 67 71 72 71 76 85 101 116 127 134 138 140 140 137 139 147 153 153 151 152 158 162 159 160 161 155 149 137 122 113 94 74 71 67 60 60 52 34 27 29 25 22 22 21 23 27 28 29 30 30 31 31 31 30 28
209 209 208 205 205 205 199 193 190 181 176 169 146 122 109 113 111 105 105 110 109 107 106 103 97 92 90 89 86 79 74 75 74 71 75 84 95 109 118 123 130 138 140 138 141 147 152 155 157 159 164 167 170 169 164 165 173 160 152 154 127 86 62 54 50 51 51 36 24 25 23 24 27 22 21 23 23 24 28 30 30 30 31 30 28
210 210 207 204 204 205 199 192 188 182 177 173 159 140 128 128 129 123 117 114 110 107 105 103 101 98 95 90 90 98 103 100 95 89 92 99 102 109 117 122 130 137 142 144 149 154 156 158 162 165 167 171 172 167 163 175 191 178 176 200 140 107 84 67 55 44 45 42 30 25 21 22 28 26 25 27 24 21 26 30 30 29 29 30 29
210 211 208 205 204 202 198 193 188 185 181 177 171 162 147 142 143 135 124 118 114 112 108 104 103 100 97 99 108 123 127 120 111 107 108 115 117 116 119 123 132 142 150 156 158 160 161 163 164 165 170 175 173 168 172 185 192 152 144 204 169 127 112 89 67 43 35 40 41 38 31 26 33 34 32 32 29 24 25 28 29 29 29 29 29
208 208 206 205 206 203 198 193 189 188 185 184 186 179 161 155 154 143 131 125 117 116 116 110 107 103 100 107 114 117 120 121 121 117 114 120 128 131 130 125 124 133 148 161 165 162 164 167 168 171 177 175 172 175 177 175 167 143 156 194 183 151 148 127 97 69 38 34 44 44 37 29 33 39 39 35 32 29 28 29 29 29 30 30 29
205 205 204 203 206 205 200 195 192 191 190 193 194 185 165 155 155 151 139 131 124 123 124 118 116 113 110 112 110 103 104 111 119 122 122 127 133 138 141 138 135 136 141 156 163 172 181 175 167 177 183 172 168 175 172 164 170 175 176 194 189 176 188 190 123 98 59 31 41 49 43 37 39 44 45 41 35 30 30 31 30 31 33 32 31
201 201 202 204 205 204 202 198 196 195 196 198 195 187 176 160 152 154 149 137 134 134 132 128 124 121 120 123 116 109 111 109 107 113 124 132 140 146 149 150 154 164 179 185 155 158 191 184 174 183 183 169 169 174 170 168 170 171 178 194 192 191 207 268 75 92 75 29 36 54 47 40 45 51 50 49 43 34 31 32 33 34 35 35 33
198 199 201 202 202 202 202 200 198 196 198 201 197 187 183 170 154 153 155 146 142 141 138 134 130 126 128 130 123 124 128 119 109 113 122 131 145 152 152 178 209 208 205 208 201 185 168 176 185 185 172 166 173 171 163 164 165 169 185 186 178 195 209 78 69 85 81 29 22 58 57 46 43 54 55 55 51 36 29 32 35 36 37 38 38
197 200 201 200 202 202 200 201 199 196 198 202 200 191 186 178 161 154 157 153 145 143 144 138 133 133 131 130 130 130 130 128 126 128 128 128 133 126 109 103 105 105 116 143 186 188 178 168 184 173 157 153 162 158 154 162 167 169 179 179 175 180 141 85 80 89 89 47 360 9 60 53 41 53 56 55 59 36 22 27 34 37 38 41 44
200 202 202 201 202 202 200 201 199 196 200 204 201 196 190 182 171 163 164 162 150 144 147 145 141 141 135 128 132 131 127 136 145 142 134 131 130 124 117 107 98 99 109 112 121 144 150 124 119 140 146 148 144 141 149 161 169 169 152 137 149 143 133 136 131 139 141 90 355 344 61 62 44 55 57 47 58 52 17 16 27 34 39 43 48
202 204 205 204 204 202 200 201 200 199 204 207 205 200 196 187 178 173 174 172 162 153 152 152 151 150 144 137 134 132 131 138 142 139 134 132 131 127 123 114 102 102 115 124 131 143 153 154 151 153 164 172 166 156 158 161 158 156 153 146 157 164 173 177 161 151 157 132 23 352 67 72 55 63 65 51 51 58 39 12 16 26 34 40 48
200 204 206 207 206 203 201 200 200 202 206 209 207 203 200 193 185 182 182 178 172 165 159 158 158 154 155 153 141 132 138 140 136 132 128 127 131 130 125 120 112 105 102 102 112 128 142 151 158 162 168 177 177 171 171 169 160 160 170 173 177 189 201 193 160 146 152 130 90 349 64 72 66 72 75 72 63 53 49 31 14 17 24 27 37
205 207 208 209 208 207 204 201 201 202 206 211 209 206 204 199 190 187 186 181 177 174 168 164 162 162 171 167 149 136 146 147 137 128 124 122 129 135 129 124 118 113 109 104 100 101 109 121 137 150 158 166 172 174 177 175 165 165 174 177 177 194 228 229 134 139 154 135 125 182 69 80 77 60 78 108 90 61 46 43 30 21 20 17 22
218 213 209 209 210 210 208 206 205 205 207 214 214 209 207 204 196 193 192 185 181 180 177 173 167 164 172 171 161 155 158 151 139 132 129 125 128 137 136 131 123 116 113 113 107 100 102 114 124 136 146 149 159 174 182 182 177 175 161 16 191 227 282 343 122 176 175 134 129 122 49 87 79 46 2 232 100 78 55 44 42 35 29 23 17
Height
845 845 844 844 843 843 843 842 842 841 841 841 841 840 840 840 840 839 839 839 838 838 838 837 837 837 837 837 837 837 836 836 836 835 835 835 835 834 834 834 834 834 834 834 835 835 836 837 838 838 839 839 839 839 840 840 840 839 839 839 838 838 837 836 836 836 836 836 835 835 835 835 835 834 834 833 833 832 832 831 831 830 829 828 827
846 845 844 844 843 843 842 842 842 841 841 841 840 840 840 839 839 839 838 838 837 837 837 836 836 836 836 836 836 836 836 836 836 835 834 835 835 834 834 834 834 833 833 833 834 835 835 836 837 838 838 838 838 839 839 839 839 839 839 838 837 837 836 835 835 835 835 834 834 833 833 833 833 833 833 832 832 831 830 830 829 828 828 827 826
845 845 844 844 843 843 842 842 841 841 841 840 840 840 839 839 839 838 838 838 837 837 836 836 835 835 835 836 836 836 836 836 835 835 835 835 835 834 833 833 833 833 833 833 834 835 836 836 837 838 838 838 838 838 838 838 838 838 838 837 836 835 834 834 834 833 833 833 832 832 831 832 832 832 831 831 830 829 829 828 827 827 826 825 824
845 845 844 844 843 843 842 842 841 841 841 840 840 839 839 839 839 838 838 838 837 837 836 836 835 835 834 835 835 835 835 835 835 834 835 835 835 835 834 833 833 833 833 833 834 835 836 837 837 837 837 837 837 837 837 837 836 836 836 835 834 834 833 832 832 832 831 831 831 830 830 830 830 830 830 830 829 828 827 827 826 825 824 823 822
846 845 844 844 843 843 843 842 842 841 841 840 840 839 839 838 838 838 838 838 837 836 836 836 835 835 834 834 834 835 835 834 834 834 835 835 835 835 834 834 833 833 833 834 835 836 836 837 837 837 836 836 836 836 836 836 835 835 834 833 832 831 831 831 830 830 830 829 829 829 828 828 828 828 828 828 827 827 826 825 824 823 823 822 821
847 846 845 845 844 843 843 842 842 841 841 840 839 839 838 838 838 837 837 837 836 836 836 836 835 835 834 834 834 834 834 833 834 834 835 834 834 834 834 834 833 832 832 834 835 836 836 836 836 836 836 836 835 835 835 835 834 833 832 831 830 830 829 829 828 828 828 827 827 827 827 827 826 826 826 826 826 825 824 824 823 822 821 820 819
848 847 846 845 845 844 843 843 842 841 841 840 839 839 838 838 837 837 836 836 835 835 835 835 835 835 834 834 834 834 834 834 834 834 834 834 833 833 833 833 833 832 833 834 835 835 836 836 837 836 836 835 835 835 835 834 834 832 831 829 829 828 828 827 827 826 826 826 825 825 825 825 825 825 825 824 824 823 823 822 821 820 819 818 817
848 848 847 846 845 845 844 843 842 842 841 840 840 839 839 838 838 837 836 835 834 833 834 835 835 835 835 834 834 834 834 834 834 834 833 833 833 833 833 832 833 833 834 835 835 834 835 836 837 836 836 836 835 835 835 834 833 832 830 829 828 827 826 826 825 825 824 824 824 824 824 824 824 823 823 823 822 822 821 821 820 818 817 816 816
849 848 848 847 846 846 845 844 843 842 842 841 840 840 839 839 838 838 838 836 835 833 833 834 834 835 835 834 834 834 834 834 834 834 834 834 834 833 833 833 834 834 835 835 835 835 836 836 837 837 836 836 835 835 835 834 833 832 830 829 828 827 826 824 823 823 822 823 823 823 823 823 823 822 822 822 821 821 820 819 818 817 816 815 815
850 849 849 848 847 847 846 845 844 843 842 841 841 840 839 839 839 838 838 837 836 835 834 834 834 834 834 835 834 834 834 834 834 834 834 835 835 834 834 834 834 834 835 836 836 836 836 837 837 837 836 836 836 835 835 834 833 832 830 829 827 826 825 824 823 822 822 822 822 822 823 822 822 821 821 821 820 820 819 818 818 816 816 815 814
850 850 849 849 848 847 846 845 844 843 843 842 841 840 840 840 839 838 838 837 836 835 835 834 834 834 834 835 834 835 835 835 835 835 835 836 836 835 835 835 836 836 836 836 836 837 837 838 838 838 837 836 836 835 835 834 833 831 830 829 828 826 825 824 823 822 822 822 822 822 822 822 822 821 821 820 820 819 819 818 817 816 815 814 813
851 850 850 849 849 848 847 846 845 844 843 842 842 841 841 840 839 839 838 837 836 836 835 834 834 834 834 834 835 835 835 835 835 836 836 836 836 836 836 836 837 837 837 837 837 838 838 838 838 838 838 837 837 836 835 834 833 832 831 829 828 827 826 825 824 824 823 823 823 823 823 822 822 821 821 820 820 819 819 818 817 816 815 813 812
852 851 850 850 849 848 847 846 845 844 844 843 842 841 841 840 839 839 838 837 836 836 836 834 834 833 833 834 835 835 836 836 836 836 837 837 837 837 837 837 838 838 838 838 839 839 839 839 839 839 839 838 837 836 836 835 834 833 832 830 829 828 827 826 826 825 825 824 824 823 823 822 822 821 820 820 820 819 818 818 817 816 814 813 812
852 851 850 850 849 848 847 846 846 845 844 843 843 842 841 840 840 838 838 837 836 836 836 835 833 832 832 833 835 836 837 837 837 838 838 838 838 838 838 839 839 839 839 840 840 840 840 840 840 840 839 839 838 837 837 837 836 834 833 832 831 830 829 828 828 827 826 826 825 824 824 823 822 822 821 820 820 819 819 818 817 816 814 813 812
852 851 851 850 849 849 848 847 846 845 845 844 843 842 842 841 840 839 838 837 836 836 836 835 834 833 832 831 832 834 836 838 838 839 839 839 839 839 839 840 840 840 840 841 841 841 841 841 841 841 840 840 839 838 837 838 838 836 835 834 832 832 831 830 830 829 828 827 827 826 825 825 824 823 822 822 821 820 819 818 817 816 814 813 812
852 852 851 850 850 849 849 848 847 846 845 845 844 843 842 841 840 839 839 837 836 836 836 835 835 834 832 830 829 829 833 837 838 839 840 840 840 840 841 841 841 841 842 842 842 842 842 842 842 842 841 841 840 839 838 838 838 837 836 835 834 833 833 832 831 830 830 829 829 828 827 826 825 824 823 822 822 821 820 818 817 815 814 813 812
853 852 851 851 850 849 849 848 848 847 846 845 845 844 843 842 841 840 839 838 837 836 836 836 835 835 833 832 831 830 831 833 836 839 841 841 842 842 842 842 842 842 843 843 843 843 843 843 843 842 842 842 841 841 840 840 839 838 838 837 836 835 834 833 833 832 831 831 830 829 828 827 826 824 824 823 822 821 820 818 817 815 814 813 812
852 852 851 851 850 849 849 848 848 847 847 846 845 844 843 843 842 841 840 839 838 837 836 836 835 835 834 834 834 833 833 832 833 839 842 842 843 843 844 844 844 844 844 844 845 845 845 844 844 844 843 843 843 842 842 842 841 840 840 839 838 837 836 835 835 834 833 832 831 831 830 828 827 826 825 824 823 821 820 818 817 815 814 813 812
852 852 851 851 850 850 849 849 848 848 847 847 846 845 844 843 842 842 841 840 839 838 837 836 836 835 835 835 834 834 834 833 833 837 841 844 845 845 846 845 845 845 845 846 846 846 846 846 846 846 845 845 844 844 844 844 844 843 842 841 840 839 838 837 836 835 834 833 833 832 831 829 828 827 826 825 823 821 820 818 817 815 814 813 812
852 852 851 851 850 850 849 849 848 848 848 847 847 846 845 844 843 842 841 840 840 839 838 837 836 836 835 835 835 834 834 834 833 834 837 843 846 846 847 846 846 846 847 847 847 847 847 847 847 847 847 847 846 846 846 846 845 844 844 843 842 841 840 838 837 837 836 835 834 833 832 831 830 828 827 825 824 822 820 819 818 816 815 813 812
852 852 851 850 850 850 849 849 848 848 848 847 847 846 845 845 844 843 842 841 840 839 839 838 838 837 836 835 835 834 834 834 834 833 834 839 845 846 846 846 847 847 848 848 848 848 848 848 849 849 849 849 848 848 847 847 847 846 846 845 844 843 841 840 839 839 838 837 836 835 833 832 831 829 828 826 824 822 821 820 818 817 815 813 812
852 851 851 850 850 850 849 849 849 848 848 847 847 846 846 845 845 844 843 842 841 840 839 839 838 838 837 836 835 835 834 833 833 833 832 836 842 845 845 845 847 848 849 849 849 849 849 849 849 850 850 850 850 850 849 849 848 848 847 846 846 845 843 842 841 841 840 838 837 836 835 834 832 830 829 827 825 823 822 820 818 817 815 814 812
852 852 851 851 850 850 849 849 849 848 848 847 847 847 846 845 845 844 843 843 842 841 840 839 839 838 838 837 836 836 835 833 834 833 833 836 840 843 845 845 847 849 850 850 850 850 850 850 850 851 851 851 851 851 851 850 850 849 849 847 846 846 845 844 843 842 841 840 839 838 836 835 833 832 830 828 826 824 823 821 819 818 816 814 813
852 851 851 851 850 850 850 849 849 849 848 848 848 847 847 846 845 845 844 843 842 841 841 840 840 839 839 838 837 837 836 835 835 834 835 837 839 841 844 845 846 849 851 851 851 851 851 851 852 852 853 853 853 853 853 852 851 850 850 848 847 847 846 846 845 844 843 842 841 839 838 837 835 833 832 830 828 825 823 821 819 818 816 814 813
851 851 851 851 851 850 850 850 850 849 849 849 849 848 848 847 846 846 845 844 843 842 842 841 840 840 839 839 838 837 837 836 836 836 837 838 839 841 844 845 846 849 851 852 851 852 852 853 853 854 854 854 854 854 854 854 853 852 851 850 849 848 847 847 846 846 845 844 843 841 840 838 837 835 833 831 829 827 824 822 820 818 816 814 813
851 851 851 851 851 850 850 850 850 850 849 849 849 849 848 847 847 846 846 845 844 843 843 842 841 841 840 839 838 838 837 837 837 837 837 838 839 841 843 845 847 849 851 852 851 852 853 854 854 855 855 855 855 856 856 855 854 854 853 852 850 849 848 847 847 846 846 845 844 843 841 840 838 836 834 832 830 828 826 824 821 819 817 815 813
851 851 851 851 851 851 850 850 850 850 850 850 849 849 848 848 847 847 846 845 845 844 844 843 842 842 841 840 839 838 838 838 838 837 837 837 839 840 842 845 849 850 851 851 852 853 854 855 855 856 856 857 857 857 857 857 856 855 855 854 853 851 850 848 848 847 847 846 846 844 843 841 840 838 835 833 831 829 827 825 822 820 817 815 813
851 851 851 851 851 851 851 850 850 850 850 850 849 849 848 848 847 847 846 846 845 845 844 844 843 842 842 841 840 839 839 839 838 838 837 837 838 840 841 843 846 849 851 852 852 854 855 856 856 857 857 857 857 858 858 858 858 857 857 856 855 853 852 850 849 848 848 847 847 846 845 843 841 839 837 834 832 830 828 825 823 821 818 816 813
851 851 851 851 851 851 851 850 850 850 850 849 849 849 848 848 847 847 846 846 845 845 844 844 844 843 842 842 841 840 840 839 839 839 838 838 839 840 842 843 843 846 849 851 853 854 856 857 857 857 858 858 858 859 859 859 859 859 858 857 856 855 854 852 851 850 849 848 848 847 846 844 842 840 838 835 833 831 829 826 824 822 819 817 814
851 851 851 851 851 851 851 850 850 850 850 849 849 849 848 847 847 847 846 846 845 845 845 844 844 843 843 842 841 841 840 840 839 839 839 839 839 840 842 843 842 843 846 848 852 854 855 856 857 858 858 859 859 859 860 860 859 859 859 859 858 857 856 854 853 852 851 850 849 848 847 845 843 841 839 836 834 832 830 827 825 823 820 818 815
851 851 851 851 851 851 850 850 850 850 849 849 849 848 848 847 847 846 846 845 845 845 844 844 844 843 843 842 842 841 841 840 839 839 839 839 840 841 841 842 842 843 844 845 849 853 855 856 857 858 859 859 860 860 861 861 860 860 860 860 859 858 857 856 855 854 853 852 851 850 848 846 844 842 840 837 835 833 831 829 826 824 822 819 817
851 851 851 851 851 851 850 850 850 849 849 849 848 848 847 847 847 846 846 845 845 844 844 844 844 843 843 842 842 841 841 840 840 839 839 839 839 840 841 842 842 842 843 844 847 851 855 856 857 858 859 860 860 861 861 861 861 861 861 861 860 859 859 858 857 856 855 854 853 851 850 848 846 844 841 839 836 834 832 830 828 826 823 821 818
850 850 851 850 850 850 850 850 849 849 849 848 848 847 847 847 847 846 846 845 845 844 844 844 844 843 843 842 842 842 841 840 840 839 839 839 839 839 840 841 841 842 842 843 846 850 854 856 857 858 859 860 860 861 861 861 862 862 862 862 861 861 861 860 859 858 856 855 854 853 851 849 847 845 843 841 838 836 833 831 829 827 825 823 820
850 850 850 850 850 850 849 849 849 849 848 848 848 847 847 847 847 846 845 845 844 844 844 844 844 844 843 843 842 842 841 841 840 839 839 839 839 839 839 840 841 841 842 843 845 849 853 855 857 858 859 860 860 861 861 862 862 862 862 862 862 862 862 861 860 859 858 857 855 854 853 851 849 847 845 842 840 837 835 833 831 829 826 824 822
849 849 849 849 849 849 849 849 849 848 848 848 848 847 847 847 846 845 845 844 844 844 844 844 844 844 843 843 843 842 842 841 840 840 840 839 839 839 839 840 841 841 843 844 845 847 851 854 856 857 859 860 860 861 862 862 862 863 863 863 863 862 862 862 861 860 859 858 857 855 854 852 851 849 847 844 842 839 837 834 832 830 828 826 823
848 848 848 848 848 848 848 848 848 848 848 848 847 847 847 846 846 845 845 844 844 844 844 844 844 844 844 843 843 843 842 841 841 840 840 840 839 840 840 841 842 842 843 844 845 847 849 852 854 856 857 859 860 861 861 862 862 863 863 863 863 863 863 863 862 861 860 859 858 857 856 854 853 851 849 846 844 841 839 836 834 832 830 828 825
846 846 847 847 847 847 847 847 847 847 847 847 847 847 846 846 845 845 844 844 844 844 844 844 844 844 844 844 843 843 842 842 841 841 841 841 840 840 841 842 842 844 844 845 846 848 849 851 853 855 857 858 860 860 861 862 862 863 863 863 863 863 863 863 863 862 861 860 859 858 857 855 854 853 851 848 846 843 841 838 836 834 832 830 827
845 845 845 845 846 846 846 846 846 846 847 847 846 846 846 846 845 845 844 844 844 844 844 844 844 844 844 844 844 843 843 843 842 842 842 842 842 842 842 842 843 844 845 846 847 848 850 851 853 855 856 858 859 860 861 861 862 862 862 863 863 863 863 863 863 863 862 861 860 860 859 858 856 854 852 850 848 846 843 841 838 836 834 832 829
844 844 844 844 844 844 845 845 845 845 846 846 846 846 846 846 845 845 845 844 844 844 844 844 844 844 844 844 844 844 844 843 843 843 843 843 843 844 844 844 845 846 846 847 848 849 850 851 853 854 855 857 858 859 860 861 861 861 862 862 862 863 863 863 863 863 862 862 861 860 860 859 857 856 854 852 850 848 846 843 840 838 836 834 831
842 842 842 843 843 843 844 844 844 844 845 845 845 845 845 845 845 845 845 845 844 844 844 844 844 844 844 844 844 844 844 844 844 844 844 844 845 845 845 846 846 847 847 848 848 849 850 851 852 853 855 856 857 858 860 860 860 860 861 861 861 862 863 864 864 863 863 863 862 861 860 859 859 858 857 855 853 851 848 845 843 840 838 836 834
841 841 841 842 842 842 843 843 843 844 844 844 844 845 845 845 845 845 845 845 844 844 845 845 844 844 844 844 844 844 844 844 844 844 844 845 845 846 846 847 847 848 848 848 848 849 850 850 851 853 854 855 856 858 859 859 859 860 861 861 861 862 863 863 864 864 864 863 863 863 862 861 861 861 859 858 856 853 850 847 845 843 840 838 836
839 840 840 841 841 841 842 842 842 843 843 843 843 844 844 845 845 845 844 844 845 845 845 845 845 845 845 844 844 844 844 844 845 845 845 846 846 846 847 847 848 848 848 849 849 849 850 850 851 852 853 854 855 857 858 859 859 860 861 861 861 862 862 863 864 865 864 864 864 863 863 863 862 862 861 860 858 856 853 850 848 846 843 841 838
837 838 839 839 840 840 840 840 841 842 842 842 842 843 844 844 845 845 844 844 845 845 845 845 845 845 845 845 845 845 845 845 845 846 846 847 847 847 848 848 849 849 849 849 850 850 850 850 851 852 852 853 855 856 857 859 860 860 861 861 861 861 862 861 862 863 865 865 864 864 864 864 863 863 862 862 861 858 856 853 851 849 846 843 841
835 836 836 837 838 838 839 839 840 840 841 841 841 842 843 844 844 845 845 844 845 845 845 845 845 845 845 846 846 846 846 846 846 847 847 847 848 848 849 849 849 850 850 850 851 851 851 851 852 852 852 854 855 856 857 859 860 860 861 861 861 861 861 861 861 863 865 865 864 864 864 864 864 864 864 864 863 861 858 856 853 851 848 846 843
832 833 834 835 835 836 837 837 838 839 839 840 840 841 842 843 844 844 845 845 845 845 845 845 845 846 846 846 846 846 846 846 847 847 847 848 848 849 849 850 850 850 851 851 851 852 852 852 853 853 853 854 855 857 858 859 860 860 861 861 861 861 862 861 862 864 865 865 865 864 864 865 864 864 864 865 864 863 861 858 856 853 851 848 846
829 830 831 832 833 834 834 835 836 837 838 838 839 840 841 842 843 844 845 845 845 845 845 846 846 846 846 846 846 846 846 846 847 848 848 849 849 849 850 850 850 851 851 851 852 852 853 853 853 854 855 855 856 857 858 859 860 860 861 861 861 862 862 863 864 865 865 865 865 864 863 865 865 865 865 865 865 864 862 860 858 856 853 851 848
826 828 829 830 831 831 832 833 834 835 835 836 838 839 840 841 842 843 844 844 845 845 845 846 846 846 846 846 846 846 846 846 847 847 848 849 849 850 851 851 851 851 851 851 852 853 853 854 854 855 855 856 857 857 859 860 860 861 861 861 862 862 863 864 864 865 865 866 866 864 864 865 866 865 866 866 866 865 864 862 860 858 856 854 851
823 825 826 827 828 829 830 831 832 832 833 834 836 837 838 840 840 842 843 844 844 845 845 846 846 846 846 846 846 847 847 846 846 846 847 849 849 850 851 851 851 851 851 851 852 852 853 853 854 854 855 856 857 858 859 860 860 861 862 862 863 863 863 863 863 864 865 865 866 865 864 865 866 866 867 867 867 867 866 864 862 860 859 857 854
819 821 823 824 825 826 827 828 829 830 830 831 833 835 837 838 839 840 841 842 843 844 844 845 846 846 846 847 847 847 847 846 846 847 847 848 850 850 851 851 852 852 852 852 852 853 853 853 854 855 855 856 857 858 859 860 860 861 862 862 862 863 862 861 861 863 864 865 866 866 865 866 867 866 867 868 867 867 867 866 864 862 860 859 857
816 817 819 821 822 823 824 825 826 827 828 829 831 833 834 836 837 838 839 840 842 843 844 844 845 846 846 846 847 847 847 847 847 847 847 848 850 851 851 852 852 853 853 854 854 854 854 854 855 855 856 857 858 858 859 860 861 862 862 862 862 862 861 860 861 862 863 864 866 866 865 866 867 867 867 867 867 868 868 867 866 864 862 861 859
815 815 816 818 820 821 822 823 824 825 826 827 828 830 831 833 835 837 837 838 839 841 842 843 844 845 845 846 846 847 847 847 847 848 848 849 850 851 851 852 852 853 854 855 855 855 855 856 856 857 857 858 858 859 860 860 861 862 862 862 862 862 861 861 862 862 861 863 865 866 865 866 866 867 866 865 865 867 869 868 867 866 865 863 862